Home   Weather   Bremerhaven   Past weeks

Flag for Germany Past Weather in Bremerhaven, Bremen, Germany — Yesterday and Last 2 Weeks

Now
68 °F

Partly sunny.


Feels Like: 68 °F
Forecast: 53 / 68 °F
Wind: 14 mph from Northwest

Location: Nordholz

Current Time: Jul 26, 2017 at 5:05:31 pm

Latest Report: Jul 26, 2017 at 4:20 pm


Visibility: N/A

Pressure: 29.74 "Hg

Humidity: 69%

Dew Point: 57 °F

Location of BremerhavenLocation

Past Weather in Bremerhaven — Graph

°F

Bremerhaven Temperature Yesterday

Maximum temperature yesterday: 63 °F (at 12:20 am)
Minimum temperature yesterday: 59 °F (at 3:20 am)
Average temperature yesterday: 61 °F

High & Low Weather Summary for the Past Weeks

 TemperatureHumidityPressure
High79 °F (Jul 19, 4:20 pm)100% (Jul 15, 5:20 am)30.21 "Hg (Jul 15, 5:20 am)
Low48 °F (Jul 14, 5:20 am)43% (Jul 14, 2:20 pm)29.71 "Hg (Jul 12, 10:00 am)
Average62 °F80%29.94 "Hg
* Reported Jul 11 3:20 pm — Jul 26 3:20 pm, Bremerhaven. Weather by CustomWeather, © 2017

Note: Actual official high and low records may vary slightly from our data, if they occured in-between our weather recording intervals... More about our weather records

Advertising

Bremerhaven Weather History for the Previous 24 Hours

Scroll right to see more
 ConditionsComfort  
Time TempWeatherWind HumidityBarometerVisibility
3:20 pm
Wed, Jul 26
68 °FScattered clouds.13 mph64%29.74 "HgN/A
2:20 pm68 °FScattered clouds.14 mph69%29.74 "HgN/A
1:20 pm68 °FScattered clouds.12 mph69%29.74 "HgN/A
12:20 pm68 °FScattered clouds.9 mph64%29.74 "HgN/A
11:20 am68 °FScattered clouds.10 mph64%29.74 "HgN/A
10:20 am68 °FBroken clouds.12 mph64%29.74 "HgN/A
9:20 am66 °FScattered clouds.8 mph68%29.74 "HgN/A
8:20 am63 °FPartly sunny.6 mph83%29.74 "HgN/A
7:20 am61 °FPartly sunny.5 mph88%29.71 "HgN/A
6:20 am59 °FBroken clouds.5 mph94%29.71 "HgN/A
5:20 am61 °FPassing clouds.5 mph88%29.74 "HgN/A
4:20 am59 °FPassing clouds.6 mph88%29.74 "HgN/A
3:20 am61 °FPassing clouds.6 mph88%29.74 "HgN/A
2:20 am61 °FPartly cloudy.7 mph88%29.74 "HgN/A
1:20 am61 °FLight rain. Mostly cloudy.10 mph83%29.74 "HgN/A
12:20 am59 °FPartly cloudy.7 mph94%29.74 "HgN/A
11:20 pm
Tue, Jul 25
59 °FPassing clouds.6 mph94%29.77 "HgN/A
10:20 pm61 °FPartly cloudy.6 mph88%29.77 "HgN/A
9:20 pm61 °FPartly sunny.12 mph88%29.77 "HgN/A
8:50 pm61 °FPartly sunny.10 mph88%29.77 "HgN/A
8:20 pm63 °FBroken clouds.12 mph83%29.77 "HgN/A
7:20 pm63 °FLight rain. Broken clouds.12 mph83%29.74 "HgN/A
6:20 pm63 °FLight rain. Broken clouds.16 mph88%29.74 "HgN/A
5:48 pm63 °FLight rain. Partly sunny.18 mph88%29.74 "HgN/A
5:20 pm63 °FLight rain. Broken clouds.16 mph88%29.74 "HgN/A
Weather by CustomWeather, © 2017

See weather overviewHow to use our weather pages